Simultaneous Nadir Overpasses (SNOs) Predictions

Prediction of SNOs between GOES-16 and LANDSAT-8 Satellite Orbit:

Table of predicted SNOs for the next 14.0 days since TLE Epoch: 2/3/2024
Index Date Time (GOES-16) GOES-16 Lat,Lon LANDSAT-8 Lat,Lon Distance(km) Time Diff (sec)
1 02/03/2024 03:11:01 -0.03, -75.20 0.06, -74.68 58.51 0
2 02/05/2024 02:57:31 -0.02, -75.20 0.72, -71.73 394.35 80
3 02/05/2024 15:21:27 0.03, -75.23 0.37, -76.89 189.34 80
4 02/07/2024 15:06:36 0.02, -75.23 -0.25, -73.94 146.95 80
5 02/08/2024 03:30:40 -0.03, -75.21 -0.87, -79.13 445.61 80
6 02/09/2024 14:54:25 0.03, -75.24 -0.88, -70.99 484.00 80
7 02/10/2024 03:18:29 -0.03, -75.22 -0.23, -76.18 108.36 80
8 02/12/2024 03:03:38 -0.04, -75.24 0.42, -73.23 229.79 80
9 02/12/2024 15:27:32 0.04, -75.27 0.72, -78.38 353.51 80
10 02/14/2024 15:12:41 0.04, -75.30 0.05, -75.43 14.57 80
11 02/16/2024 15:00:30 0.03, -75.33 -0.57, -72.47 324.97 80
